Weather History for Catania, Italy

Change the Weather History Date:

Thursday, October 4, 2012

  Actual Average Record
Temperature  
Mean Temperature 66 °F -  
Max Temperature 78 °F 75 °F 95 °F (2006)
Min Temperature 55 °F 56 °F 55 °F (2000)
Cooling Degree Days 2    
Growing Degree Days 16 (Base 50)    
Moisture  
Dew Point 53 °F    
Average Humidity 59    
Maximum Humidity 77    
Minimum Humidity 36    
Precipitation  
Precipitation 0.00 in 0.13 in - ()
Sea Level Pressure  
Sea Level Pressure 30.07 in    
Wind  
Wind Speed 6 mph ()    
Max Wind Speed 12 mph    
Max Gust Speed -    
Visibility 6.2 miles    
Events      
Averages and records for this station are not official NWS values.
T = Trace of Precipitation, MM = Missing Value Source: Averaged Metar Reports

Daily Weather History Graph

Daily Weather History Graph

Search for Another Location

Airport:

Trip Planner

Search our weather history database for the weather conditions in past years. The results will help you decide how hot, cold, wet, or windy it might be!

Date:

Astronomy

Oct. 04, 2012 Rise Set
Actual Time 6:58 AM CEST 6:38 PM CEST
Civil Twilight 6:31 AM CEST 7:04 PM CEST
Nautical Twilight 6:01 AM CEST 7:34 PM CEST
Astronomical Twilight 5:31 AM CEST 8:04 PM CEST
Moon 9:06 PM CEST (10/4) 10:54 AM CEST (10/4)
Length of Visible Light 12h 32m
Length of Day
11h 40m
Waning Gibbous, 84% of the Moon is Illuminated
Oct 4
Waning Gibbous
Oct 8
Last Quarter
Oct 15
New
Oct 22
First Quarter
Oct 29
Full

Hourly Weather History & Observations

Time (CEST) Temp. Dew Point Humidity Pressure Visibility Wind Dir Wind Speed Gust Speed Precip Events Conditions
12:20 AM 66.2 °F 57.2 °F 73% 30.09 in 6.2 mi West 5.8 mph - N/A   Partly Cloudy
12:50 AM 66.2 °F 57.2 °F 73% 30.09 in 6.2 mi West 8.1 mph - N/A   Partly Cloudy
1:20 AM 66.2 °F 53.6 °F 64% 30.09 in - WNW 5.8 mph - N/A   Clear
1:50 AM 66.2 °F 51.8 °F 60% 30.09 in - WNW 6.9 mph - N/A   Clear
2:20 AM 62.6 °F 53.6 °F 72% 30.09 in - SW 8.1 mph - N/A   Clear
2:50 AM 60.8 °F 51.8 °F 72% 30.09 in - WSW 6.9 mph - N/A   Clear
3:20 AM 60.8 °F 51.8 °F 72% 30.09 in - WSW 4.6 mph - N/A   Clear
3:50 AM 59.0 °F 50.0 °F 72% 30.09 in - SW 5.8 mph - N/A   Clear
4:20 AM 59.0 °F 50.0 °F 72% 30.09 in - Variable 1.2 mph - N/A   Clear
4:50 AM 59.0 °F 50.0 °F 72% 30.09 in - SW 3.5 mph - N/A   Clear
5:20 AM 57.2 °F 48.2 °F 72% 30.09 in - WSW 6.9 mph - N/A   Clear
5:50 AM 57.2 °F 48.2 °F 72% 30.09 in - WSW 5.8 mph - N/A   Clear
6:20 AM 57.2 °F 48.2 °F 72% 30.09 in - SW 8.1 mph - N/A   Clear
6:50 AM 55.4 °F 48.2 °F 77% 30.09 in - West 5.8 mph - N/A   Clear
7:20 AM 55.4 °F 48.2 °F 77% 30.09 in - WSW 3.5 mph - N/A   Clear
7:50 AM 59.0 °F 50.0 °F 72% 30.09 in - WSW 6.9 mph - N/A   Clear
8:20 AM 62.6 °F 50.0 °F 63% 30.09 in - WSW 6.9 mph - N/A   Clear
8:50 AM 66.2 °F 50.0 °F 56% 30.09 in - WSW 8.1 mph - N/A   Clear
9:20 AM 69.8 °F 50.0 °F 49% 30.09 in - SW 8.1 mph - N/A   Clear
9:50 AM 71.6 °F 50.0 °F 46% 30.09 in - SW 8.1 mph - N/A   Clear
10:20 AM 73.4 °F 51.8 °F 47% 30.09 in - WSW 5.8 mph - N/A   Clear
10:50 AM 75.2 °F 50.0 °F 41% 30.09 in - SSW 4.6 mph - N/A   Clear
11:20 AM 77.0 °F 50.0 °F 39% 30.09 in - Variable 3.5 mph - N/A   Clear
11:50 AM 77.0 °F 50.0 °F 39% 30.09 in - Variable 3.5 mph - N/A   Clear
12:20 PM 78.8 °F 50.0 °F 36% 30.09 in - Variable 3.5 mph - N/A   Clear
12:50 PM 78.8 °F 51.8 °F 39% 30.09 in - ESE 10.4 mph - N/A   Clear
1:20 PM 78.8 °F 51.8 °F 39% 30.06 in - East 11.5 mph - N/A   Clear
1:50 PM 78.8 °F 50.0 °F 36% 30.06 in - East 11.5 mph - N/A   Clear
2:20 PM 78.8 °F 50.0 °F 36% 30.06 in - East 11.5 mph - N/A   Clear
2:50 PM 77.0 °F 55.4 °F 47% 30.04 in - East 10.4 mph - N/A   Clear
3:20 PM 77.0 °F 57.2 °F 50% 30.04 in - East 11.5 mph - N/A   Clear
3:50 PM 75.2 °F 57.2 °F 53% 30.04 in - East 11.5 mph - N/A   Clear
4:20 PM 77.0 °F 57.2 °F 50% 30.04 in - ESE 11.5 mph - N/A   Clear
4:50 PM 75.2 °F 55.4 °F 50% 30.04 in - East 11.5 mph - N/A   Clear
5:20 PM 75.2 °F 55.4 °F 50% 30.04 in - East 10.4 mph - N/A   Clear
5:50 PM 75.2 °F 53.6 °F 47% 30.04 in - East 10.4 mph - N/A   Clear
6:20 PM 73.4 °F 55.4 °F 53% 30.04 in - East 9.2 mph - N/A   Clear
6:50 PM 71.6 °F 55.4 °F 57% 30.04 in - East 6.9 mph - N/A   Clear
7:20 PM 71.6 °F 57.2 °F 60% 30.04 in - ESE 5.8 mph - N/A   Clear
7:50 PM 71.6 °F 57.2 °F 60% 30.06 in - ESE 5.8 mph - N/A   Clear
8:20 PM 71.6 °F 57.2 °F 60% 30.06 in - SE 3.5 mph - N/A   Clear
8:50 PM 69.8 °F 57.2 °F 64% 30.06 in - Calm Calm - N/A   Clear
9:20 PM 69.8 °F 59.0 °F 68% 30.06 in - Calm Calm - N/A   Clear
9:50 PM 69.8 °F 57.2 °F 64% 30.06 in - Variable 2.3 mph - N/A   Clear
10:20 PM 68.0 °F 57.2 °F 68% 30.06 in - Variable 1.2 mph - N/A   Clear
10:50 PM 66.2 °F 57.2 °F 73% 30.06 in - Variable 1.2 mph - N/A   Clear
11:20 PM 64.4 °F 57.2 °F 77% 30.06 in - SW 4.6 mph - N/A   Clear
11:50 PM 64.4 °F 57.2 °F 77% 30.06 in - WSW 4.6 mph - N/A   Clear